{"data":{"norad_id":56517,"intl_designator":"2023-065Q","name":"STARLINK-5345","alt_names":[],"object_type":"PAYLOAD","status":"ACTIVE","operator":null,"country":"US","launch_date":"2023-05-14","launch_site_code":"AFETR","launch_vehicle":null,"mission":null,"orbit_class":"UNKNOWN","rcs_meters":null,"size_class":null,"mass_kg":null,"dimensions":null,"purposes":["comms"],"wikipedia_slug":null,"has_3d_model":false,"image_url":null,"decayed_at":null,"tle_current":{"epoch":"2026-09-20T04:22:16.407840Z","epoch_age_seconds":142321,"freshness":"FRESH","line1":"1 56517U 23065Q   26263.18213435 -.00000821  00000+0 -20343-4 0  9994","line2":"2 56517  43.0019 194.1865 0000498 232.2119 127.8688 15.27577916186340","mean_motion":15.27577916,"eccentricity":4.98e-5,"inclination_deg":43.0019,"raan_deg":194.1865,"arg_perigee_deg":232.2119,"mean_anomaly_deg":127.8688,"bstar":-2.0343e-5,"rev_number":18634,"period_min":94.266877317176,"perigee_km":482.71364891412,"apogee_km":483.39702367081,"semimajor_km":6861.1923362925,"source":"CELESTRAK","updated_at":"2026-09-21T09:00:33.471706Z"}}}